| time (UTC) | temp C | wind direction | speed KPH | gust KPH | rain 1hr cm | rain 24hr cm | rain mn cm | humidity % | barometer mb |
| 20260507074432 | 17 | 180 | 9.7 | 14.5 | 0.00 | 0.00 | 0.00 | 63 | 1014.4 |
| 20260507073935 | 17 | 194 | 8.0 | 16.1 | 0.00 | 0.00 | 0.00 | 64 | 1014.5 |
| 20260507073433 | 17 | 195 | 9.7 | 16.1 | 0.00 | 0.00 | 0.00 | 64 | 1014.2 |
| 20260507072934 | 17 | 186 | 12.9 | 16.1 | 0.00 | 0.00 | 0.00 | 63 | 1014.3 |
| 20260507072433 | 17 | 187 | 11.3 | 14.5 | 0.00 | 0.00 | 0.00 | 63 | 1014.2 |
| 20260507071935 | 17 | 180 | 8.0 | 17.7 | 0.00 | 0.00 | 0.00 | 63 | 1014.1 |
| 20260507071432 | 17 | 181 | 12.9 | 17.7 | 0.00 | 0.00 | 0.00 | 63 | 1014.3 |
| 20260507070934 | 17 | 183 | 11.3 | 17.7 | 0.00 | 0.00 | 0.00 | 63 | 1014.4 |
| 20260507070432 | 17 | 192 | 14.5 | 17.7 | 0.00 | 0.00 | 0.00 | 64 | 1014.1 |
| 20260507065934 | 17 | 180 | 12.9 | 16.1 | 0.00 | 0.00 | 0.00 | 64 | 1014.2 |
| 20260507065436 | 17 | 180 | 11.3 | 14.5 | 0.00 | 0.00 | 0.00 | 63 | 1014.2 |
| 20260507064933 | 17 | 185 | 11.3 | 14.5 | 0.00 | 0.00 | 0.00 | 64 | 1014.2 |
| 20260507064432 | 17 | 184 | 9.7 | 14.5 | 0.00 | 0.00 | 0.00 | 63 | 1014.1 |
| 20260507063935 | 17 | 187 | 12.9 | 14.5 | 0.00 | 0.00 | 0.00 | 64 | 1014.1 |
| 20260507063433 | 17 | 190 | 11.3 | 14.5 | 0.00 | 0.00 | 0.00 | 64 | 1014.1 |
| 20260507062932 | 17 | 186 | 11.3 | 12.9 | 0.00 | 0.00 | 0.00 | 65 | 1014.0 |
| 20260507062434 | 17 | 187 | 12.9 | 12.9 | 0.00 | 0.00 | 0.00 | 65 | 1014.0 |
| 20260507061933 | 17 | 191 | 11.3 | 12.9 | 0.00 | 0.00 | 0.00 | 66 | 1014.1 |
| 20260507061435 | 17 | 185 | 11.3 | 14.5 | 0.00 | 0.00 | 0.00 | 66 | 1013.8 |
| 20260507060933 | 17 | 189 | 11.3 | 14.5 | 0.00 | 0.00 | 0.00 | 66 | 1014.0 |
| 20260507060434 | 17 | 186 | 11.3 | 12.9 | 0.00 | 0.00 | 0.00 | 67 | 1013.7 |
| 20260507055934 | 17 | 184 | 11.3 | 14.5 | 0.00 | 0.00 | 0.00 | 67 | 1013.7 |
| 20260507055435 | 17 | 190 | 11.3 | 14.5 | 0.00 | 0.00 | 0.00 | 67 | 1013.7 |
| 20260507054932 | 17 | 180 | 9.7 | 14.5 | 0.00 | 0.00 | 0.00 | 67 | 1013.8 |
| 20260507054434 | 17 | 183 | 9.7 | 12.9 | 0.00 | 0.00 | 0.00 | 67 | 1013.7 |
| 20260507053933 | 17 | 187 | 9.7 | 14.5 | 0.00 | 0.00 | 0.00 | 67 | 1013.6 |
| 20260507053435 | 17 | 189 | 8.0 | 14.5 | 0.00 | 0.00 | 0.00 | 68 | 1013.5 |
| 20260507052933 | 17 | 184 | 9.7 | 14.5 | 0.00 | 0.00 | 0.00 | 70 | 1013.5 |
| 20260507052433 | 17 | 176 | 9.7 | 17.7 | 0.00 | 0.00 | 0.00 | 70 | 1013.4 |
| 20260507051934 | 17 | 188 | 11.3 | 17.7 | 0.00 | 0.00 | 0.00 | 71 | 1013.6 |
| 20260507051434 | 17 | 180 | 12.9 | 16.1 | 0.00 | 0.00 | 0.00 | 72 | 1013.5 |
| 20260507050933 | 17 | 181 | 9.7 | 16.1 | 0.00 | 0.00 | 0.00 | 75 | 1013.5 |
| 20260507050436 | 17 | 187 | 12.9 | 16.1 | 0.00 | 0.00 | 0.00 | 77 | 1013.3 |
| 20260507045933 | 17 | 186 | 11.3 | 17.7 | 0.00 | 0.00 | 0.00 | 77 | 1013.3 |
| 20260507045434 | 17 | 178 | 12.9 | 17.7 | 0.00 | 0.00 | 0.00 | 77 | 1013.3 |
| 20260507044933 | 17 | 186 | 16.1 | 17.7 | 0.00 | 0.00 | 0.00 | 77 | 1013.0 |
| 20260507044434 | 17 | 187 | 12.9 | 14.5 | 0.00 | 0.00 | 0.00 | 77 | 1013.1 |
| 20260507043934 | 17 | 173 | 11.3 | 14.5 | 0.00 | 0.00 | 0.00 | 77 | 1013.1 |
| 20260507043433 | 17 | 201 | 11.3 | 14.5 | 0.00 | 0.00 | 0.00 | 77 | 1013.2 |
| 20260507042932 | 17 | 197 | 6.4 | 12.9 | 0.00 | 0.00 | 0.00 | 78 | 1013.1 |
| 20260507042435 | 17 | 183 | 11.3 | 12.9 | 0.00 | 0.00 | 0.00 | 77 | 1013.0 |
| 20260507041932 | 17 | 186 | 11.3 | 12.9 | 0.00 | 0.00 | 0.00 | 77 | 1013.0 |
| 20260507041434 | 17 | 186 | 11.3 | 12.9 | 0.00 | 0.00 | 0.00 | 77 | 1013.0 |
| 20260507040932 | 17 | 183 | 11.3 | 14.5 | 0.00 | 0.00 | 0.00 | 77 | 1012.8 |
| 20260507040434 | 17 | 187 | 11.3 | 14.5 | 0.00 | 0.00 | 0.00 | 77 | 1012.7 |
| 20260507035932 | 17 | 192 | 9.7 | 12.9 | 0.00 | 0.00 | 0.00 | 77 | 1012.6 |
| 20260507035434 | 17 | 183 | 11.3 | 12.9 | 0.00 | 0.00 | 0.00 | 76 | 1012.4 |
| 20260507034933 | 17 | 184 | 11.3 | 12.9 | 0.00 | 0.00 | 0.00 | 75 | 1012.5 |
| 20260507034435 | 17 | 184 | 11.3 | 12.9 | 0.00 | 0.00 | 0.00 | 75 | 1012.7 |
| 20260507033932 | 17 | 184 | 11.3 | 11.3 | 0.00 | 0.00 | 0.00 | 74 | 1012.4 |
| 20260507033434 | 17 | 183 | 11.3 | 12.9 | 0.00 | 0.00 | 0.00 | 74 | 1012.6 |
| 20260507032933 | 17 | 184 | 11.3 | 12.9 | 0.00 | 0.00 | 0.00 | 73 | 1012.5 |
| 20260507032433 | 17 | 185 | 11.3 | 12.9 | 0.00 | 0.00 | 0.00 | 73 | 1012.5 |
| 20260507031934 | 17 | 183 | 11.3 | 12.9 | 0.00 | 0.00 | 0.00 | 72 | 1012.5 |
| 20260507031434 | 17 | 184 | 11.3 | 12.9 | 0.00 | 0.00 | 0.00 | 72 | 1012.7 |
| 20260507030932 | 17 | 184 | 9.7 | 12.9 | 0.00 | 0.00 | 0.00 | 72 | 1012.3 |
| 20260507030436 | 17 | 184 | 11.3 | 12.9 | 0.00 | 0.00 | 0.00 | 71 | 1012.5 |
| 20260507025935 | 17 | 183 | 11.3 | 12.9 | 0.00 | 0.00 | 0.00 | 71 | 1012.4 |
| 20260507025434 | 17 | 183 | 11.3 | 12.9 | 0.00 | 0.00 | 0.00 | 71 | 1012.1 |
| 20260507024932 | 17 | 183 | 11.3 | 12.9 | 0.00 | 0.00 | 0.00 | 71 | 1012.2 |
| 20260507024434 | 17 | 185 | 11.3 | 12.9 | 0.00 | 0.00 | 0.00 | 71 | 1012.2 |
| 20260507023934 | 17 | 184 | 11.3 | 12.9 | 0.00 | 0.00 | 0.00 | 71 | 1012.0 |
| 20260507023434 | 17 | 184 | 11.3 | 12.9 | 0.00 | 0.00 | 0.00 | 70 | 1012.1 |
| 20260507022933 | 17 | 186 | 11.3 | 12.9 | 0.00 | 0.00 | 0.00 | 70 | 1012.0 |
| 20260507022436 | 17 | 184 | 11.3 | 12.9 | 0.00 | 0.00 | 0.00 | 70 | 1012.0 |
| 20260507021933 | 17 | 183 | 11.3 | 12.9 | 0.00 | 0.00 | 0.00 | 70 | 1011.9 |
| 20260507021434 | 17 | 183 | 11.3 | 11.3 | 0.00 | 0.00 | 0.00 | 70 | 1011.9 |
| 20260507020933 | 17 | 182 | 11.3 | 12.9 | 0.00 | 0.00 | 0.00 | 70 | 1011.7 |
| 20260507020434 | 17 | 184 | 11.3 | 12.9 | 0.00 | 0.00 | 0.00 | 70 | 1011.9 |
| 20260507015934 | 17 | 185 | 11.3 | 12.9 | 0.00 | 0.00 | 0.00 | 69 | 1011.8 |
| 20260507015434 | 17 | 183 | 11.3 | 12.9 | 0.00 | 0.00 | 0.00 | 69 | 1011.6 |
| 20260507014932 | 17 | 184 | 9.7 | 12.9 | 0.00 | 0.00 | 0.00 | 69 | 1011.7 |
| 20260507014435 | 17 | 185 | 11.3 | 12.9 | 0.00 | 0.00 | 0.00 | 69 | 1011.6 |
| 20260507013933 | 17 | 182 | 11.3 | 12.9 | 0.00 | 0.00 | 0.00 | 69 | 1011.6 |
| 20260507013434 | 17 | 183 | 11.3 | 12.9 | 0.00 | 0.00 | 0.00 | 69 | 1011.6 |
| 20260507012933 | 17 | 184 | 11.3 | 12.9 | 0.00 | 0.00 | 0.00 | 69 | 1011.5 |
| 20260507012434 | 17 | 184 | 11.3 | 12.9 | 0.00 | 0.00 | 0.00 | 69 | 1011.7 |
| 20260507011934 | 18 | 184 | 11.3 | 12.9 | 0.00 | 0.00 | 0.00 | 68 | 1011.6 |
| 20260507011434 | 18 | 183 | 11.3 | 12.9 | 0.00 | 0.00 | 0.00 | 67 | 1011.6 |
| 20260507010933 | 18 | 183 | 11.3 | 12.9 | 0.00 | 0.00 | 0.00 | 67 | 1011.6 |
| 20260507010435 | 18 | 183 | 11.3 | 12.9 | 0.00 | 0.00 | 0.00 | 66 | 1011.6 |
| 20260507005933 | 18 | 183 | 11.3 | 12.9 | 0.00 | 0.00 | 0.00 | 66 | 1011.4 |
| 20260507005434 | 18 | 183 | 11.3 | 12.9 | 0.00 | 0.00 | 0.00 | 65 | 1011.4 |
| 20260507004932 | 18 | 183 | 11.3 | 11.3 | 0.00 | 0.00 | 0.00 | 65 | 1011.2 |
| 20260507004434 | 18 | 183 | 9.7 | 11.3 | 0.00 | 0.00 | 0.00 | 65 | 1011.3 |
| 20260507003934 | 18 | 183 | 9.7 | 11.3 | 0.00 | 0.00 | 0.00 | 64 | 1011.4 |
| 20260507003436 | 18 | 183 | 11.3 | 11.3 | 0.00 | 0.00 | 0.00 | 64 | 1011.1 |
| 20260507002933 | 19 | 182 | 9.7 | 12.9 | 0.00 | 0.00 | 0.00 | 64 | 1011.2 |
| 20260507002436 | 19 | 181 | 9.7 | 12.9 | 0.00 | 0.00 | 0.00 | 63 | 1011.2 |
| 20260507001933 | 19 | 183 | 11.3 | 12.9 | 0.00 | 0.00 | 0.00 | 63 | 1011.2 |
| 20260507001434 | 19 | 183 | 11.3 | 12.9 | 0.00 | 0.00 | 0.00 | 63 | 1011.3 |
| 20260507000933 | 19 | 183 | 11.3 | 12.9 | 0.00 | 0.00 | 0.00 | 62 | 1011.5 |
| 20260507000435 | 19 | 184 | 11.3 | 12.9 | 0.00 | 0.00 | 0.00 | 61 | 1011.4 |
| 20260506235935 | 19 | 182 | 11.3 | 12.9 | 0.00 | 0.00 | 0.00 | 61 | 1011.4 |
| 20260506235434 | 20 | 183 | 11.3 | 12.9 | 0.00 | 0.00 | 0.00 | 60 | 1011.7 |
| 20260506234933 | 20 | 183 | 11.3 | 12.9 | 0.00 | 0.00 | 0.00 | 60 | 1011.4 |
| 20260506234435 | 20 | 183 | 11.3 | 12.9 | 0.00 | 0.00 | 0.00 | 59 | 1011.1 |
| 20260506233934 | 20 | 183 | 11.3 | 12.9 | 0.00 | 0.00 | 0.00 | 59 | 1011.4 |
| 20260506233434 | 20 | 182 | 11.3 | 12.9 | 0.00 | 0.00 | 0.00 | 58 | 1011.3 |
| 20260506232932 | 20 | 184 | 11.3 | 14.5 | 0.00 | 0.00 | 0.00 | 57 | 1011.1 |
| 20260506232435 | 20 | 182 | 11.3 | 14.5 | 0.00 | 0.00 | 0.00 | 56 | 1011.1 |
| 20260506231933 | 20 | 182 | 11.3 | 14.5 | 0.00 | 0.00 | 0.00 | 56 | 1011.0 |
| 20260506231434 | 20 | 183 | 11.3 | 16.1 | 0.00 | 0.00 | 0.00 | 55 | 1011.1 |
| 20260506230933 | 20 | 185 | 12.9 | 16.1 | 0.00 | 0.00 | 0.00 | 55 | 1010.9 |
| 20260506230434 | 21 | 185 | 11.3 | 16.1 | 0.00 | 0.00 | 0.00 | 54 | 1010.8 |
| 20260506225934 | 21 | 183 | 11.3 | 14.5 | 0.00 | 0.00 | 0.00 | 54 | 1010.9 |
| 20260506225433 | 21 | 182 | 12.9 | 14.5 | 0.00 | 0.00 | 0.00 | 53 | 1010.7 |
| 20260506224933 | 21 | 182 | 11.3 | 14.5 | 0.00 | 0.00 | 0.00 | 52 | 1010.7 |
| 20260506224435 | 21 | 185 | 11.3 | 14.5 | 0.00 | 0.00 | 0.00 | 52 | 1010.6 |
| 20260506223933 | 21 | 185 | 12.9 | 14.5 | 0.00 | 0.00 | 0.00 | 52 | 1010.8 |
| 20260506223434 | 21 | 181 | 12.9 | 14.5 | 0.00 | 0.00 | 0.00 | 51 | 1010.5 |
| 20260506222933 | 21 | 180 | 11.3 | 14.5 | 0.00 | 0.00 | 0.00 | 51 | 1010.6 |
| 20260506222434 | 21 | 183 | 14.5 | 14.5 | 0.00 | 0.00 | 0.00 | 51 | 1010.7 |
| 20260506221934 | 21 | 184 | 11.3 | 14.5 | 0.00 | 0.00 | 0.00 | 51 | 1010.4 |
| 20260506221434 | 21 | 183 | 12.9 | 14.5 | 0.00 | 0.00 | 0.00 | 50 | 1010.5 |
| 20260506220933 | 21 | 180 | 9.7 | 14.5 | 0.00 | 0.00 | 0.00 | 50 | 1010.7 |
| 20260506220445 | 21 | 182 | 12.9 | 14.5 | 0.00 | 0.00 | 0.00 | 50 | 1010.4 |
| 20260506215933 | 21 | 180 | 11.3 | 14.5 | 0.00 | 0.00 | 0.00 | 50 | 1010.6 |
| 20260506215434 | 21 | 181 | 11.3 | 14.5 | 0.00 | 0.00 | 0.00 | 50 | 1010.5 |
| 20260506214936 | 21 | 183 | 11.3 | 14.5 | 0.00 | 0.00 | 0.00 | 50 | 1010.5 |
| 20260506214439 | 22 | 182 | 11.3 | 14.5 | 0.00 | 0.00 | 0.00 | 49 | 1010.3 |
| 20260506213936 | 22 | 180 | 9.7 | 14.5 | 0.00 | 0.00 | 0.00 | 49 | 1010.4 |
| 20260506213438 | 22 | 182 | 11.3 | 14.5 | 0.00 | 0.00 | 0.00 | 48 | 1010.3 |
| 20260506212937 | 22 | 181 | 11.3 | 14.5 | 0.00 | 0.00 | 0.00 | 48 | 1010.2 |
| 20260506212438 | 22 | 182 | 9.7 | 16.1 | 0.00 | 0.00 | 0.00 | 48 | 1010.3 |
| 20260506211938 | 22 | 184 | 12.9 | 16.1 | 0.00 | 0.00 | 0.00 | 48 | 1010.1 |
| 20260506211438 | 22 | 183 | 11.3 | 14.5 | 0.00 | 0.00 | 0.00 | 48 | 1009.9 |
| 20260506210937 | 22 | 183 | 12.9 | 14.5 | 0.00 | 0.00 | 0.00 | 48 | 1009.9 |
| 20260506210439 | 22 | 183 | 11.3 | 14.5 | 0.00 | 0.00 | 0.00 | 48 | 1010.0 |
| 20260506205936 | 22 | 185 | 12.9 | 16.1 | 0.00 | 0.00 | 0.00 | 47 | 1010.0 |
| 20260506205438 | 22 | 181 | 9.7 | 16.1 | 0.00 | 0.00 | 0.00 | 48 | 1010.0 |
| 20260506204937 | 21 | 182 | 11.3 | 14.5 | 0.00 | 0.00 | 0.00 | 49 | 1010.1 |
| 20260506204438 | 21 | 184 | 9.7 | 14.5 | 0.00 | 0.00 | 0.00 | 50 | 1009.9 |
| 20260506203938 | 21 | 181 | 11.3 | 12.9 | 0.00 | 0.00 | 0.00 | 50 | 1010.0 |
| 20260506203438 | 21 | 183 | 12.9 | 12.9 | 0.00 | 0.00 | 0.00 | 51 | 1009.9 |
| 20260506202936 | 21 | 183 | 11.3 | 12.9 | 0.00 | 0.00 | 0.00 | 52 | 1009.9 |
| 20260506202440 | 21 | 185 | 12.9 | 12.9 | 0.00 | 0.00 | 0.00 | 50 | 1009.7 |
| 20260506201937 | 22 | 183 | 11.3 | 12.9 | 0.00 | 0.00 | 0.00 | 49 | 1009.6 |
| 20260506201438 | 22 | 182 | 11.3 | 12.9 | 0.00 | 0.00 | 0.00 | 48 | 1009.5 |
| 20260506200937 | 22 | 181 | 11.3 | 12.9 | 0.00 | 0.00 | 0.00 | 49 | 1009.7 |
| 20260506200437 | 22 | 181 | 11.3 | 12.9 | 0.00 | 0.00 | 0.00 | 48 | 1009.7 |
| 20260506195938 | 22 | 182 | 11.3 | 12.9 | 0.00 | 0.00 | 0.00 | 48 | 1009.5 |
| 20260506195438 | 22 | 181 | 12.9 | 12.9 | 0.00 | 0.00 | 0.00 | 48 | 1009.6 |
| 20260506194937 | 22 | 180 | 11.3 | 12.9 | 0.00 | 0.00 | 0.00 | 48 | 1009.6 |
| 20260506194439 | 22 | 183 | 11.3 | 12.9 | 0.00 | 0.00 | 0.00 | 48 | 1009.5 |
| 20260506193936 | 22 | 182 | 11.3 | 12.9 | 0.00 | 0.00 | 0.00 | 49 | 1009.6 |
| 20260506193438 | 22 | 182 | 11.3 | 12.9 | 0.00 | 0.00 | 0.00 | 49 | 1009.5 |
| 20260506192936 | 22 | 182 | 11.3 | 12.9 | 0.00 | 0.00 | 0.00 | 49 | 1009.4 |
| 20260506192438 | 22 | 181 | 11.3 | 11.3 | 0.00 | 0.00 | 0.00 | 49 | 1009.4 |
| 20260506191938 | 22 | 181 | 9.7 | 11.3 | 0.00 | 0.00 | 0.00 | 49 | 1009.4 |
| 20260506191438 | 22 | 182 | 11.3 | 11.3 | 0.00 | 0.00 | 0.00 | 50 | 1009.3 |
| 20260506190938 | 22 | 181 | 9.7 | 11.3 | 0.00 | 0.00 | 0.00 | 50 | 1009.3 |
| 20260506190439 | 22 | 183 | 9.7 | 11.3 | 0.00 | 0.00 | 0.00 | 50 | 1009.4 |
| 20260506185937 | 22 | 182 | 11.3 | 11.3 | 0.00 | 0.00 | 0.00 | 50 | 1009.3 |
| 20260506185438 | 22 | 184 | 9.7 | 11.3 | 0.00 | 0.00 | 0.00 | 49 | 1009.3 |
| 20260506184937 | 23 | 182 | 9.7 | 12.9 | 0.00 | 0.00 | 0.00 | 48 | 1009.3 |
| 20260506184438 | 23 | 181 | 11.3 | 12.9 | 0.00 | 0.00 | 0.00 | 48 | 1009.3 |
| 20260506183938 | 23 | 183 | 11.3 | 12.9 | 0.00 | 0.00 | 0.00 | 48 | 1009.3 |
| 20260506183438 | 23 | 182 | 11.3 | 12.9 | 0.00 | 0.00 | 0.00 | 48 | 1009.2 |
| 20260506182937 | 23 | 181 | 11.3 | 12.9 | 0.00 | 0.00 | 0.00 | 48 | 1009.4 |
| 20260506182442 | 23 | 182 | 11.3 | 12.9 | 0.00 | 0.00 | 0.00 | 47 | 1009.3 |
| 20260506181937 | 23 | 182 | 11.3 | 12.9 | 0.00 | 0.00 | 0.00 | 47 | 1009.2 |
| 20260506181438 | 23 | 182 | 11.3 | 12.9 | 0.00 | 0.00 | 0.00 | 47 | 1009.2 |
| 20260506180937 | 23 | 181 | 11.3 | 12.9 | 0.00 | 0.00 | 0.00 | 46 | 1009.1 |
| 20260506180437 | 23 | 183 | 11.3 | 12.9 | 0.00 | 0.00 | 0.00 | 46 | 1008.9 |
| 20260506175437 | 23 | 181 | 11.3 | 12.9 | 0.00 | 0.00 | 0.00 | 45 | 1008.9 |
| 20260506174937 | 24 | 182 | 11.3 | 12.9 | 0.00 | 0.00 | 0.00 | 45 | 1008.8 |
| 20260506174440 | 24 | 181 | 11.3 | 12.9 | 0.00 | 0.00 | 0.00 | 44 | 1008.9 |
| 20260506173936 | 24 | 183 | 11.3 | 12.9 | 0.00 | 0.00 | 0.00 | 44 | 1008.8 |
| 20260506173436 | 24 | 183 | 11.3 | 12.9 | 0.00 | 0.00 | 0.00 | 44 | 1008.8 |
| 20260506172939 | 25 | 181 | 11.3 | 12.9 | 0.00 | 0.00 | 0.00 | 44 | 1008.9 |
| 20260506172437 | 25 | 183 | 11.3 | 12.9 | 0.00 | 0.00 | 0.00 | 43 | 1008.8 |
| 20260506171939 | 25 | 182 | 11.3 | 11.3 | 0.00 | 0.00 | 0.00 | 43 | 1009.0 |
| 20260506171437 | 25 | 183 | 11.3 | 12.9 | 0.00 | 0.00 | 0.00 | 43 | 1008.8 |
| 20260506170938 | 25 | 182 | 11.3 | 14.5 | 0.00 | 0.00 | 0.00 | 42 | 1008.7 |
| 20260506170438 | 25 | 180 | 11.3 | 14.5 | 0.00 | 0.00 | 0.00 | 42 | 1008.8 |
| 20260506165938 | 25 | 184 | 12.9 | 14.5 | 0.00 | 0.00 | 0.00 | 42 | 1008.6 |
| 20260506165437 | 25 | 181 | 9.7 | 14.5 | 0.00 | 0.00 | 0.00 | 42 | 1008.7 |
| 20260506164938 | 25 | 177 | 11.3 | 14.5 | 0.00 | 0.00 | 0.00 | 41 | 1008.6 |
| 20260506164436 | 25 | 185 | 12.9 | 14.5 | 0.00 | 0.00 | 0.00 | 41 | 1008.9 |
| 20260506163940 | 25 | 184 | 11.3 | 14.5 | 0.00 | 0.00 | 0.00 | 41 | 1009.1 |
| 20260506163437 | 25 | 185 | 11.3 | 14.5 | 0.00 | 0.00 | 0.00 | 41 | 1009.1 |
| 20260506162938 | 26 | 181 | 11.3 | 14.5 | 0.00 | 0.00 | 0.00 | 41 | 1009.1 |
| 20260506162440 | 26 | 182 | 11.3 | 14.5 | 0.00 | 0.00 | 0.00 | 41 | 1008.8 |
| 20260506161938 | 26 | 183 | 9.7 | 14.5 | 0.00 | 0.00 | 0.00 | 41 | 1009.0 |
| 20260506161437 | 26 | 182 | 9.7 | 12.9 | 0.00 | 0.00 | 0.00 | 40 | 1008.9 |
| 20260506160938 | 26 | 180 | 9.7 | 14.5 | 0.00 | 0.00 | 0.00 | 40 | 1009.1 |
| 20260506160438 | 26 | 182 | 11.3 | 14.5 | 0.00 | 0.00 | 0.00 | 41 | 1009.0 |
| 20260506155939 | 26 | 178 | 9.7 | 12.9 | 0.00 | 0.00 | 0.00 | 40 | 1009.1 |
| 20260506155437 | 26 | 182 | 11.3 | 16.1 | 0.00 | 0.00 | 0.00 | 40 | 1009.2 |
| 20260506154938 | 26 | 182 | 11.3 | 16.1 | 0.00 | 0.00 | 0.00 | 40 | 1009.0 |
| 20260506154437 | 26 | 180 | 11.3 | 14.5 | 0.00 | 0.00 | 0.00 | 40 | 1009.0 |
| 20260506153940 | 26 | 182 | 11.3 | 12.9 | 0.00 | 0.00 | 0.00 | 40 | 1009.3 |
| 20260506153436 | 26 | 180 | 9.7 | 12.9 | 0.00 | 0.00 | 0.00 | 39 | 1009.4 |
| 20260506152938 | 26 | 183 | 11.3 | 12.9 | 0.00 | 0.00 | 0.00 | 39 | 1009.3 |
| 20260506152441 | 26 | 182 | 11.3 | 12.9 | 0.00 | 0.00 | 0.00 | 39 | 1009.2 |
| 20260506151938 | 27 | 181 | 9.7 | 11.3 | 0.00 | 0.00 | 0.00 | 40 | 1009.2 |
| 20260506151438 | 27 | 181 | 9.7 | 11.3 | 0.00 | 0.00 | 0.00 | 38 | 1009.4 |
| 20260506150937 | 27 | 180 | 9.7 | 11.3 | 0.00 | 0.00 | 0.00 | 38 | 1009.7 |
| 20260506150438 | 27 | 180 | 9.7 | 12.9 | 0.00 | 0.00 | 0.00 | 38 | 1009.4 |
| 20260506145938 | 27 | 181 | 11.3 | 12.9 | 0.00 | 0.00 | 0.00 | 37 | 1009.6 |
| 20260506145438 | 27 | 181 | 11.3 | 14.5 | 0.00 | 0.00 | 0.00 | 39 | 1009.5 |
| 20260506144937 | 27 | 185 | 11.3 | 14.5 | 0.00 | 0.00 | 0.00 | 38 | 1009.4 |
| 20260506144438 | 27 | 180 | 9.7 | 14.5 | 0.00 | 0.00 | 0.00 | 37 | 1009.6 |
| 20260506143938 | 27 | 180 | 11.3 | 12.9 | 0.00 | 0.00 | 0.00 | 38 | 1009.7 |
| 20260506143438 | 27 | 180 | 11.3 | 12.9 | 0.00 | 0.00 | 0.00 | 41 | 1009.4 |
| 20260506142937 | 27 | 180 | 11.3 | 12.9 | 0.00 | 0.00 | 0.00 | 37 | 1009.4 |
| 20260506142439 | 27 | 180 | 11.3 | 14.5 | 0.00 | 0.00 | 0.00 | 38 | 1009.8 |
| 20260506141937 | 27 | 181 | 11.3 | 14.5 | 0.00 | 0.00 | 0.00 | 37 | 1009.7 |
| 20260506141439 | 27 | 180 | 12.9 | 12.9 | 0.00 | 0.00 | 0.00 | 39 | 1009.8 |
| 20260506140936 | 27 | 178 | 9.7 | 14.5 | 0.00 | 0.00 | 0.00 | 37 | 1009.7 |
| 20260506140438 | 28 | 181 | 11.3 | 14.5 | 0.00 | 0.00 | 0.00 | 37 | 1009.9 |
| 20260506135938 | 28 | 179 | 9.7 | 12.9 | 0.00 | 0.00 | 0.00 | 37 | 1010.0 |
| 20260506135438 | 28 | 180 | 9.7 | 12.9 | 0.00 | 0.00 | 0.00 | 38 | 1009.8 |
| 20260506134937 | 28 | 180 | 9.7 | 12.9 | 0.00 | 0.00 | 0.00 | 36 | 1009.8 |
| 20260506134439 | 28 | 180 | 9.7 | 14.5 | 0.00 | 0.00 | 0.00 | 37 | 1010.0 |
| 20260506133937 | 28 | 180 | 9.7 | 14.5 | 0.00 | 0.00 | 0.00 | 36 | 1010.1 |
| 20260506133438 | 29 | 176 | 9.7 | 14.5 | 0.00 | 0.00 | 0.00 | 37 | 1010.0 |
| 20260506132937 | 29 | 176 | 9.7 | 12.9 | 0.00 | 0.00 | 0.00 | 37 | 1010.1 |
| 20260506132437 | 29 | 180 | 9.7 | 14.5 | 0.00 | 0.00 | 0.00 | 35 | 1010.2 |
| 20260506131939 | 30 | 180 | 9.7 | 16.1 | 0.00 | 0.00 | 0.00 | 36 | 1010.2 |
| 20260506131439 | 30 | 177 | 9.7 | 16.1 | 0.00 | 0.00 | 0.00 | 35 | 1010.1 |
| 20260506130937 | 30 | 179 | 11.3 | 14.5 | 0.00 | 0.00 | 0.00 | 36 | 1010.3 |
| 20260506130440 | 30 | 180 | 8.0 | 14.5 | 0.00 | 0.00 | 0.00 | 35 | 1010.4 |
| 20260506125937 | 30 | 179 | 9.7 | 12.9 | 0.00 | 0.00 | 0.00 | 36 | 1010.5 |
| 20260506125438 | 30 | 180 | 11.3 | 14.5 | 0.00 | 0.00 | 0.00 | 35 | 1010.8 |
| 20260506124937 | 30 | 181 | 12.9 | 16.1 | 0.00 | 0.00 | 0.00 | 36 | 1010.5 |
| 20260506124439 | 30 | 180 | 9.7 | 16.1 | 0.00 | 0.00 | 0.00 | 36 | 1010.7 |
| 20260506123936 | 30 | 180 | 11.3 | 14.5 | 0.00 | 0.00 | 0.00 | 36 | 1010.7 |
| 20260506123438 | 29 | 178 | 9.7 | 16.1 | 0.00 | 0.00 | 0.00 | 38 | 1010.7 |
| 20260506122936 | 29 | 180 | 9.7 | 16.1 | 0.00 | 0.00 | 0.00 | 38 | 1010.7 |
| 20260506122438 | 28 | 177 | 8.0 | 14.5 | 0.00 | 0.00 | 0.00 | 38 | 1010.9 |
| 20260506121939 | 28 | 180 | 9.7 | 14.5 | 0.00 | 0.00 | 0.00 | 37 | 1011.0 |
| 20260506121438 | 28 | 181 | 12.9 | 19.3 | 0.00 | 0.00 | 0.00 | 37 | 1010.9 |
| 20260506120937 | 27 | 180 | 9.7 | 19.3 | 0.00 | 0.00 | 0.00 | 39 | 1011.0 |
| 20260506120440 | 27 | 180 | 11.3 | 14.5 | 0.00 | 0.00 | 0.00 | 39 | 1011.1 |
| 20260506115937 | 27 | 179 | 11.3 | 16.1 | 0.00 | 0.00 | 0.00 | 40 | 1011.2 |
| 20260506115439 | 27 | 181 | 11.3 | 17.7 | 0.00 | 0.00 | 0.00 | 40 | 1011.3 |
| 20260506114938 | 27 | 179 | 9.7 | 17.7 | 0.00 | 0.00 | 0.00 | 39 | 1011.1 |
| 20260506114439 | 28 | 181 | 12.9 | 14.5 | 0.00 | 0.00 | 0.00 | 39 | 1011.3 |
| 20260506113938 | 28 | 175 | 11.3 | 14.5 | 0.00 | 0.00 | 0.00 | 38 | 1011.5 |
| 20260506113438 | 28 | 180 | 9.7 | 14.5 | 0.00 | 0.00 | 0.00 | 40 | 1011.3 |
| 20260506112936 | 27 | 183 | 11.3 | 20.9 | 0.00 | 0.00 | 0.00 | 39 | 1011.4 |
| 20260506112440 | 27 | 181 | 11.3 | 20.9 | 0.00 | 0.00 | 0.00 | 39 | 1011.6 |
| 20260506111936 | 27 | 179 | 12.9 | 14.5 | 0.00 | 0.00 | 0.00 | 39 | 1011.6 |
| 20260506111439 | 27 | 177 | 9.7 | 17.7 | 0.00 | 0.00 | 0.00 | 40 | 1011.6 |
| 20260506110937 | 27 | 184 | 12.9 | 17.7 | 0.00 | 0.00 | 0.00 | 40 | 1011.7 |
| 20260506110439 | 27 | 182 | 9.7 | 17.7 | 0.00 | 0.00 | 0.00 | 42 | 1011.7 |
| 20260506105939 | 26 | 185 | 9.7 | 17.7 | 0.00 | 0.00 | 0.00 | 40 | 1011.7 |
| 20260506105439 | 26 | 180 | 9.7 | 14.5 | 0.00 | 0.00 | 0.00 | 40 | 1011.7 |
| 20260506104937 | 26 | 181 | 9.7 | 14.5 | 0.00 | 0.00 | 0.00 | 41 | 1011.9 |
| 20260506104439 | 26 | 186 | 11.3 | 14.5 | 0.00 | 0.00 | 0.00 | 41 | 1011.9 |
| 20260506103937 | 26 | 181 | 9.7 | 14.5 | 0.00 | 0.00 | 0.00 | 42 | 1012.0 |
| 20260506103439 | 26 | 181 | 9.7 | 17.7 | 0.00 | 0.00 | 0.00 | 40 | 1011.8 |
| 20260506102937 | 26 | 185 | 11.3 | 17.7 | 0.00 | 0.00 | 0.00 | 40 | 1012.0 |
| 20260506102439 | 26 | 181 | 9.7 | 14.5 | 0.00 | 0.00 | 0.00 | 41 | 1012.1 |
| 20260506101939 | 25 | 185 | 9.7 | 14.5 | 0.00 | 0.00 | 0.00 | 41 | 1012.2 |
| 20260506101439 | 25 | 186 | 14.5 | 14.5 | 0.00 | 0.00 | 0.00 | 41 | 1012.1 |
| 20260506100937 | 25 | 188 | 12.9 | 14.5 | 0.00 | 0.00 | 0.00 | 41 | 1012.2 |
| 20260506100444 | 25 | 181 | 9.7 | 16.1 | 0.00 | 0.00 | 0.00 | 43 | 1012.3 |
| 20260506095937 | 25 | 180 | 9.7 | 17.7 | 0.00 | 0.00 | 0.00 | 42 | 1012.5 |
| 20260506095439 | 25 | 184 | 14.5 | 17.7 | 0.00 | 0.00 | 0.00 | 42 | 1012.5 |
| 20260506094937 | 25 | 182 | 11.3 | 14.5 | 0.00 | 0.00 | 0.00 | 42 | 1012.6 |
| 20260506094439 | 25 | 180 | 8.0 | 16.1 | 0.00 | 0.00 | 0.00 | 42 | 1012.6 |
| 20260506093938 | 25 | 178 | 11.3 | 16.1 | 0.00 | 0.00 | 0.00 | 43 | 1012.6 |
| 20260506093439 | 25 | 187 | 11.3 | 14.5 | 0.00 | 0.00 | 0.00 | 43 | 1012.4 |
| 20260506092937 | 25 | 184 | 9.7 | 14.5 | 0.00 | 0.00 | 0.00 | 43 | 1012.5 |
| 20260506092440 | 25 | 181 | 9.7 | 14.5 | 0.00 | 0.00 | 0.00 | 43 | 1012.6 |
| 20260506091937 | 24 | 181 | 9.7 | 14.5 | 0.00 | 0.00 | 0.00 | 43 | 1012.8 |
| 20260506091438 | 24 | 180 | 9.7 | 17.7 | 0.00 | 0.00 | 0.00 | 43 | 1012.9 |
| 20260506090937 | 24 | 180 | 11.3 | 17.7 | 0.00 | 0.00 | 0.00 | 42 | 1012.7 |
| 20260506090438 | 24 | 181 | 9.7 | 16.1 | 0.00 | 0.00 | 0.00 | 44 | 1013.0 |
| 20260506085938 | 24 | 182 | 9.7 | 16.1 | 0.00 | 0.00 | 0.00 | 44 | 1012.7 |
| 20260506085439 | 24 | 181 | 9.7 | 16.1 | 0.00 | 0.00 | 0.00 | 46 | 1013.0 |
| 20260506084939 | 23 | 182 | 11.3 | 17.7 | 0.00 | 0.00 | 0.00 | 44 | 1012.9 |
| 20260506084440 | 23 | 184 | 8.0 | 17.7 | 0.00 | 0.00 | 0.00 | 44 | 1012.9 |
| 20260506083937 | 23 | 183 | 11.3 | 17.7 | 0.00 | 0.00 | 0.00 | 45 | 1012.9 |
| 20260506083438 | 23 | 178 | 11.3 | 19.3 | 0.00 | 0.00 | 0.00 | 44 | 1012.9 |
| 20260506082937 | 23 | 180 | 9.7 | 19.3 | 0.00 | 0.00 | 0.00 | 46 | 1012.9 |
| 20260506082438 | 23 | 182 | 11.3 | 14.5 | 0.00 | 0.00 | 0.00 | 47 | 1013.0 |
| 20260506081938 | 23 | 182 | 11.3 | 17.7 | 0.00 | 0.00 | 0.00 | 46 | 1012.7 |
| 20260506081438 | 23 | 179 | 11.3 | 17.7 | 0.00 | 0.00 | 0.00 | 46 | 1012.7 |
| 20260506080937 | 23 | 179 | 11.3 | 16.1 | 0.00 | 0.00 | 0.00 | 46 | 1012.7 |
| 20260506080440 | 23 | 176 | 8.0 | 17.7 | 0.00 | 0.00 | 0.00 | 46 | 1012.8 |